Home > Weather > Montego Bay > Past weeks

Flag for Jamaica Weather for the Past 2 Weeks in Montego Bay, Jamaica

Now
72 °F

Passing clouds.


Feels Like: 67 °F
Forecast: 74 / 80 °F
Wind: 2 mph from North

Location: Montego Bay / Sangster

Current Time: Feb 9, 2016 at 1:38:19 AM

Latest Report: Feb 9, 2016 at 12:00 AM


Visibility: N/A

Pressure: 30.04 "Hg

Humidity: 94%

Dew point: 70 °F

Location of Montego BayLocation

Historic Weather in Montego Bay — Graph

°F

Montego Bay Temperature Yesterday

Maximum temperature yesterday: 79 °F (at 1:00 PM)
Minimum temperature yesterday: 72 °F (at 9:00 PM)
Average temperature yesterday: 75 °F

High & Low Weather Summary for the Past Weeks

 TemperatureHumidityPressure
High86 °F (Jan 26, 2:00 PM)100% (Feb 8, 10:00 PM)30.09 "Hg (Feb 8, 10:00 PM)
Low72 °F (Feb 1, 6:00 AM)55% (Feb 7, 11:00 AM)29.89 "Hg (Jan 27, 3:00 PM)
Average78 °F76%29.98 "Hg
* Reported Midnight between Jan 24 and Jan 25 — Midnight between Feb 8 and Feb 9, Montego Bay, Weather by CustomWeather, © 2016

Note: Actual official high and low records may vary slightly from our data, if they occured in-between our weather recording intervals... More about our weather records

Advertising

Montego Bay Weather History for the Previous 24 Hours

 ConditionsComfort  
Time TempWeatherWind HumidityBarometerVisibility
12:00 AM
Tue, Feb 9
72 °FPassing clouds.2 mph94%30.04 "HgN/A
11:00 PM
Mon, Feb 8
72 °FRain. Partly cloudy.6 mph94%30.04 "Hg3 mi
10:00 PM72 °FLight rain. Mostly cloudy.7 mph100%30.04 "HgN/A
9:00 PM72 °FLight rain. Mostly cloudy.5 mph94%30.04 "HgN/A
8:00 PM73 °FLight rain. Mostly cloudy.7 mph89%30.01 "HgN/A
7:00 PM73 °FLight rain. Mostly cloudy.5 mph89%29.98 "HgN/A
6:00 PM73 °FLight rain. Mostly cloudy.2 mph89%29.98 "HgN/A
5:00 PM75 °FLight rain. Broken clouds.6 mph83%29.98 "HgN/A
4:00 PM77 °FLight rain. Partly sunny.10 mph79%29.95 "HgN/A
3:00 PM77 °FPartly sunny.10 mph79%29.95 "HgN/A
2:00 PM77 °FLight rain. Partly sunny.10 mph79%29.98 "HgN/A
1:00 PM79 °FPartly sunny.8 mph74%29.98 "HgN/A
12:00 PM77 °FScattered clouds.9 mph79%30.01 "HgN/A
11:00 AM77 °FBroken clouds.10 mph79%30.04 "HgN/A
10:00 AM75 °FLight rain. Broken clouds.9 mph83%30.04 "HgN/A
9:00 AM75 °FBroken clouds.10 mph83%30.04 "HgN/A
8:00 AM75 °FLight rain. Broken clouds.10 mph83%30.01 "HgN/A
7:00 AM75 °FLight rain. Broken clouds.9 mph83%30.01 "HgN/A
6:00 AM75 °FLight rain. Partly cloudy.3 mph83%29.98 "HgN/A
5:00 AM75 °FLight rain. Partly cloudy.5 mph83%29.98 "HgN/A
4:00 AM75 °FLight rain. Partly cloudy.8 mph83%29.98 "HgN/A
3:00 AM73 °FPassing clouds.2 mph94%29.98 "HgN/A
2:00 AM75 °FPartly cloudy.2 mph89%29.98 "HgN/A
1:00 AM75 °FLight rain. Partly cloudy.8 mph89%29.98 "HgN/A
Weather by CustomWeather, © 2016

See weather overviewHow to use our weather pages